When you browse on this site, cookies collect data to enhance your experience and personalize the content and advertising you see.
Visit our Privacy Policy to learn more. By continuing to use the site, you agree to this use of cookies and data.
  • In Hungary
  • List of Countries
  • For 7 days
  • Water Temperature
  • Satellite Maps
  • Weather Map
  • News
  • Weather Widgets
  • user-avatar
    Login

    Hourly Weather Ternopil

    Today, 16 November, Friday

    Time Temperature Precipitation Wind Pressure Humidity
    00:00 +2°C° 0 mm 3 mps 745 mmHg 85%
    01:00 +2°C° 0 mm 3 mps 746 mmHg 85%
    02:00 +2°C° 0 mm 2 mps 746 mmHg 85%
    03:00 +1°C° 0 mm 3 mps 747 mmHg 87%
    04:00 +1°C° 0 mm 3 mps 747 mmHg 88%
    05:00 +1°C° 0 mm 3 mps 747 mmHg 89%
    06:00 0°C° 0 mm 3 mps 747 mmHg 89%
    07:00 0°C° 0 mm 3 mps 747 mmHg 90%
    08:00 -2°C° 0 mm 4 mps 748 mmHg 90%
    09:00 -1°C° 0 mm 4 mps 748 mmHg 83%
    10:00 0°C° 0 mm 4 mps 748 mmHg 75%
    11:00 +1°C° 0 mm 4 mps 748 mmHg 68%
    12:00 +1°C° 0 mm 4 mps 748 mmHg 63%
    13:00 +3°C° 0 mm 4 mps 748 mmHg 57%
    14:00 +3°C° 0 mm 4 mps 748 mmHg 51%
    15:00 +1°C° 0 mm 4 mps 748 mmHg 53%
    16:00 0°C° 0 mm 4 mps 748 mmHg 56%
    17:00 +1°C° 0 mm 3 mps 748 mmHg 58%
    18:00 -1°C° 0 mm 4 mps 748 mmHg 60%
    19:00 -2°C° 0 mm 4 mps 748 mmHg 61%
    20:00 -2°C° 0 mm 4 mps 748 mmHg 62%
    21:00 -3°C° 0 mm 4 mps 749 mmHg 63%
    22:00 -3°C° 0 mm 4 mps 749 mmHg 64%
    23:00 -3°C° 0 mm 4 mps 749 mmHg 64%

    Tomorrow, 17 November, Saturday

    Time Temperature Precipitation Wind Pressure Humidity
    00:00 -2°C° 0 mm 3 mps 749 mmHg 64%
    01:00 -2°C° 0 mm 3 mps 749 mmHg 64%
    02:00 -2°C° 0 mm 3 mps 749 mmHg 63%
    03:00 -2°C° 0 mm 3 mps 749 mmHg 64%
    04:00 -2°C° 0 mm 3 mps 749 mmHg 65%
    05:00 -2°C° 0 mm 3 mps 749 mmHg 66%
    06:00 -2°C° 0 mm 3 mps 749 mmHg 67%
    07:00 -2°C° 0 mm 3 mps 749 mmHg 68%
    08:00 -2°C° 0 mm 3 mps 749 mmHg 68%
    09:00 -2°C° 0 mm 3 mps 749 mmHg 66%
    10:00 -1°C° 0 mm 3 mps 749 mmHg 64%
    11:00 -1°C° 0 mm 3 mps 749 mmHg 63%
    12:00 0°C° 0 mm 3 mps 749 mmHg 62%
    13:00 +1°C° 0 mm 2 mps 749 mmHg 62%
    14:00 +2°C° 0 mm 2 mps 748 mmHg 61%
    15:00 +1°C° 0 mm 2 mps 748 mmHg 65%
    16:00 +1°C° 0 mm 2 mps 748 mmHg 68%
    17:00 -1°C° 0 mm 2 mps 748 mmHg 72%
    18:00 -1°C° 0 mm 2 mps 748 mmHg 71%
    19:00 -2°C° 0 mm 2 mps 747 mmHg 71%
    20:00 0°C° 0 mm 1 mps 747 mmHg 70%
    21:00 0°C° 0 mm 1 mps 747 mmHg 69%
    22:00 0°C° 0 mm 1 mps 747 mmHg 67%
    23:00 0°C° 0 mm 1 mps 747 mmHg 65%

    Day after tomorrow, 18 November, Sunday

    Time Temperature Precipitation Wind Pressure Humidity
    00:00 0°C° 0 mm 1 mps 746 mmHg 65%
    01:00 0°C° 0 mm 1 mps 746 mmHg 65%
    02:00 0°C° 0 mm 1 mps 746 mmHg 64%
    03:00 -1°C° 0 mm 1 mps 745 mmHg 64%
    04:00 -1°C° 0 mm 1 mps 744 mmHg 64%
    05:00 -1°C° 0 mm 1 mps 744 mmHg 64%
    06:00 -1°C° 0 mm 1 mps 744 mmHg 64%
    07:00 -1°C° 0 mm 1 mps 743 mmHg 64%
    08:00 -1°C° 0 mm 1 mps 743 mmHg 64%
    09:00 -2°C° 0 mm 2 mps 742 mmHg 60%
    10:00 +1°C° 0 mm 2 mps 742 mmHg 56%
    11:00 +1°C° 0 mm 3 mps 741 mmHg 53%
    12:00 +1°C° 0 mm 3 mps 741 mmHg 52%
    13:00 +1°C° 0 mm 3 mps 740 mmHg 51%
    14:00 +2°C° 0 mm 3 mps 740 mmHg 50%
    15:00 +1°C° 0 mm 3 mps 739 mmHg 53%
    16:00 +1°C° 0 mm 2 mps 739 mmHg 56%
    17:00 -1°C° 0 mm 2 mps 738 mmHg 59%
    18:00 -1°C° 0.1 mm 2 mps 738 mmHg 64%
    19:00 -1°C° 0.1 mm 2 mps 737 mmHg 69%
    20:00 -2°C° 0.1 mm 2 mps 737 mmHg 74%
    21:00 -2°C° 0.1 mm 2 mps 737 mmHg 78%
    22:00 -2°C° 0.1 mm 2 mps 737 mmHg 82%
    23:00 -2°C° 0.1 mm 2 mps 737 mmHg 86%

    19 November, Monday

    Time Temperature Precipitation Wind Pressure Humidity
    00:00 0°C° 0.1 mm 1 mps 736 mmHg 88%
    01:00 0°C° 0.1 mm 1 mps 736 mmHg 89%
    02:00 0°C° 0.1 mm 1 mps 736 mmHg 90%
    03:00 0°C° 0 mm 1 mps 735 mmHg 91%
    04:00 0°C° 0 mm 1 mps 735 mmHg 92%
    05:00 -2°C° 0 mm 0 mps 735 mmHg 93%
    06:00 -1°C° 0.1 mm 0 mps 735 mmHg 93%
    07:00 -1°C° 0.1 mm 0 mps 735 mmHg 92%
    08:00 -1°C° 0.1 mm 0 mps 735 mmHg 92%
    09:00 +1°C° 0 mm 1 mps 735 mmHg 88%
    10:00 +1°C° 0 mm 1 mps 735 mmHg 85%
    11:00 +1°C° 0 mm 2 mps 735 mmHg 81%
    12:00 +1°C° 0 mm 2 mps 735 mmHg 79%
    13:00 +1°C° 0 mm 2 mps 735 mmHg 77%
    14:00 +2°C° 0 mm 2 mps 735 mmHg 75%
    15:00 +1°C° 0 mm 2 mps 735 mmHg 77%
    16:00 +1°C° 0 mm 2 mps 735 mmHg 79%
    17:00 +1°C° 0 mm 2 mps 735 mmHg 80%
    18:00 -1°C° 0 mm 2 mps 735 mmHg 81%
    19:00 -1°C° 0 mm 2 mps 735 mmHg 82%
    20:00 -2°C° 0 mm 2 mps 735 mmHg 83%
    21:00 -2°C° 0.1 mm 3 mps 735 mmHg 83%
    22:00 -1°C° 0.1 mm 3 mps 735 mmHg 82%
    23:00 -2°C° 0.1 mm 4 mps 735 mmHg 82%

    20 November, Tuesday

    Time Temperature Precipitation Wind Pressure Humidity
    00:00 -3°C° 0.2 mm 4 mps 735 mmHg 83%
    01:00 -3°C° 0.2 mm 4 mps 735 mmHg 84%
    02:00 -3°C° 0.2 mm 4 mps 735 mmHg 85%
    03:00 -3°C° 0.2 mm 4 mps 735 mmHg 86%
    04:00 -3°C° 0.2 mm 4 mps 735 mmHg 87%
    05:00 -3°C° 0.2 mm 4 mps 734 mmHg 88%
    06:00 -3°C° 0.2 mm 4 mps 734 mmHg 89%
    07:00 -3°C° 0.2 mm 4 mps 734 mmHg 90%
    08:00 -3°C° 0.2 mm 4 mps 734 mmHg 91%
    09:00 -3°C° 0.1 mm 4 mps 734 mmHg 91%
    10:00 -2°C° 0.1 mm 4 mps 734 mmHg 90%
    11:00 -2°C° 0.1 mm 4 mps 735 mmHg 90%
    12:00 0°C° 0 mm 3 mps 734 mmHg 89%
    13:00 0°C° 0 mm 3 mps 734 mmHg 89%
    14:00 +1°C° 0 mm 3 mps 734 mmHg 88%
    15:00 0°C° 0 mm 3 mps 734 mmHg 90%
    16:00 0°C° 0 mm 3 mps 734 mmHg 91%
    17:00 0°C° 0 mm 3 mps 734 mmHg 93%
    18:00 0°C° 0 mm 3 mps 734 mmHg 94%
    19:00 0°C° 0 mm 3 mps 734 mmHg 94%
    20:00 -1°C° 0 mm 4 mps 734 mmHg 95%
    21:00 0°C° 0 mm 4 mps 734 mmHg 95%
    22:00 0°C° 0 mm 5 mps 733 mmHg 94%
    23:00 0°C° 0 mm 5 mps 733 mmHg 94%

    21 November, Wednesday

    Time Temperature Precipitation Wind Pressure Humidity
    00:00 -1°C° 0.5 mm 6 mps 732 mmHg 93%
    01:00 -1°C° 0.5 mm 6 mps 731 mmHg 93%
    02:00 -1°C° 0.5 mm 7 mps 731 mmHg 92%
    03:00 -1°C° 1.2 mm 8 mps 730 mmHg 92%
    04:00 -1°C° 1.2 mm 8 mps 729 mmHg 91%
    05:00 -1°C° 1.2 mm 8 mps 728 mmHg 91%
    06:00 -1°C° 1.3 mm 8 mps 728 mmHg 91%
    07:00 -1°C° 1.3 mm 9 mps 727 mmHg 91%
    08:00 -1°C° 1.3 mm 9 mps 727 mmHg 92%
    09:00 -1°C° 0.4 mm 9 mps 726 mmHg 92%
    10:00 -1°C° 0.4 mm 8 mps 726 mmHg 92%
    11:00 -1°C° 0.4 mm 8 mps 726 mmHg 93%
    12:00 -1°C° 0.3 mm 8 mps 725 mmHg 93%
    13:00 -1°C° 0.3 mm 7 mps 725 mmHg 94%
    14:00 0°C° 0.3 mm 7 mps 724 mmHg 94%
    15:00 0°C° 0.2 mm 7 mps 724 mmHg 95%
    16:00 +1°C° 0.2 mm 6 mps 724 mmHg 95%
    17:00 -1°C° 0.2 mm 6 mps 724 mmHg 95%
    18:00 0°C° 0.5 mm 5 mps 724 mmHg 96%
    19:00 +1°C° 0.5 mm 5 mps 724 mmHg 96%
    20:00 +1°C° 0.5 mm 4 mps 724 mmHg 97%
    21:00 +2°C° 0.8 mm 3 mps 724 mmHg 97%
    22:00 +1°C° 0.8 mm 3 mps 724 mmHg 98%
    23:00 +2°C° 0.8 mm 2 mps 725 mmHg 98%
    Show more